星链-2699 (STARLINK-2699 )

导读

STARLINK-2699是美国太空探索技术公司(SpaceX)星链星座中的一颗卫星,于2021年5月9日发射入轨,属于Starlink Group 2-1批次。星链项目旨在构建全球卫星互联网星座,该卫星承担着为全球尤其是偏远地区提供低延迟、高速宽带互联网接入服务的任务,是星链大规模组网中的组成单元。

Basic Information
目录编号:
48433
目录名称:
STARLINK-2699
国际标识:
2021-040F
轨道中心:
EARTH
卫星名称:
星链-2699
卫星全名:
星链-2699 (STARLINK-2699 )
卫星状态:
在轨 (已飞行1944 天)
发射日期:
2021-05-09 UTC
国别 :
美国 (US)
星等 :
--
Orbit Information
数据来源 国际轨道数据
星历时间: 2026-09-04T08:46:32+0800
9小时前
查看轨道信息
半长轴: 6848.842km
偏心率: 0.0001025
轨道倾角: 53.162°
近地点辐角 55.677°
升交点赤经 42.672°
平近点角 304.433°
近地点: 470.002km
远地点: 471.408km
周期: 94.012分钟
每日圈数: 15.317118
Detailed Information
固有亮度:
5
最大亮度:
2.5
卫星平台:
Starlink V1.0
覆盖范围:
全球
运营商:
太空探索技术公司
运营商所在国:
美国
制造商(研发单位):
太空探索技术公司
制造商所在国:
美国
使用方式:
暂无
Satellite Introduction
星链(Starlink)计划是由太空探索技术公司(SpaceX)提出的一个巨型低轨卫星互联网星座项目,计划在2019年至2024年间在太空搭建由约1.2万颗卫星组成的“星链”网络,其中1584颗将部署在地球上空550千米处的近地轨道,并从2020年开始工作。该卫星仍在工作。
2D Orbit Map
3D Orbit Map
Orbit Altitude Analysis Chart
Orbit Inclination Analysis Chart
Orbit Comprehensive Analysis Chart
View Comprehensive Chart
Conjunction Data List
Event ID Objects TCA Miss Dist (km) Collision Risk Probability Collision Risk Index (CRI) Action
CDM_260905-152504-843306-798521
2026-09-05T
15:25:07+0000
2.654 km
极远距离
1.528599E-6 低风险 0.39
CDM_260906-132204-843306-485421
2026-09-06T
13:22:37+0000
2.513 km
极远距离
1.349432E-6 低风险 0.38
CDM_260827-220304-843306-886321
2026-08-27T
22:03:36+0000
2.995 km
极远距离
1.340084E-6 低风险 0.38
CDM_260904-103304-843306-772721
2026-09-04T
10:33:32+0000
2.807 km
极远距离
1.291969E-6 低风险 0.37
CDM_260905-170204-843306-955321
2026-09-05T
17:02:56+0000
2.972 km
极远距离
1.257213E-6 低风险 0.37
CDM_260904-102904-843305-213621
2026-09-04T
10:29:03+0000
2.314 km
极远距离
1.172484E-6 低风险 0.36
CDM_260904-173004-843306-903421
2026-09-04T
17:30:26+0000
2.866 km
极远距离
1.07009E-6 低风险 0.36
CDM_260904-220804-843306-913721
2026-09-04T
22:08:48+0000
2.806 km
极远距离
1.005589E-6 低风险 0.35